When you browse on this site, cookies collect data to enhance your experience and personalize the content and advertising you see.
Visit our Privacy Policy to learn more. By continuing to use the site, you agree to this use of cookies and data.

Météo par heure à Baden-Baden

Ce jour, 29 Septembre, Mardi

Heure Température Précipitation Vent Pression Humidité
00:00 +10°C° 0 mm 1 m/s 729 mmHg 89%
01:00 +10°C° 0 mm 1 m/s 729 mmHg 90%
02:00 +10°C° 0.2 mm 1 m/s 729 mmHg 92%
03:00 +10°C° 0.2 mm 2 m/s 729 mmHg 93%
04:00 +10°C° 0.2 mm 2 m/s 729 mmHg 94%
05:00 +10°C° 0.9 mm 2 m/s 729 mmHg 95%
06:00 +10°C° 0.9 mm 3 m/s 730 mmHg 95%
07:00 +10°C° 0.9 mm 3 m/s 730 mmHg 96%
08:00 +10°C° 0.1 mm 3 m/s 730 mmHg 94%
09:00 +10°C° 0.1 mm 3 m/s 731 mmHg 93%
10:00 +10°C° 0.1 mm 4 m/s 731 mmHg 91%
11:00 +11°C° 0 mm 4 m/s 731 mmHg 89%
12:00 +11°C° 0 mm 3 m/s 732 mmHg 87%
13:00 +11°C° 0 mm 3 m/s 732 mmHg 85%
14:00 +11°C° 0 mm 3 m/s 732 mmHg 84%
15:00 +11°C° 0 mm 3 m/s 732 mmHg 83%
16:00 +12°C° 0 mm 2 m/s 731 mmHg 83%
17:00 +12°C° 0 mm 2 m/s 732 mmHg 84%
18:00 +12°C° 0 mm 2 m/s 732 mmHg 85%
19:00 +11°C° 0 mm 1 m/s 732 mmHg 86%
20:00 +11°C° 0 mm 1 m/s 732 mmHg 86%
21:00 +11°C° 0 mm 1 m/s 732 mmHg 86%
22:00 +11°C° 0 mm 1 m/s 732 mmHg 87%
23:00 +11°C° 0 mm 1 m/s 731 mmHg 87%

Demain, 30 Septembre, Mercredi

Heure Température Précipitation Vent Pression Humidité
00:00 +11°C° 0 mm 1 m/s 731 mmHg 88%
01:00 +10°C° 0 mm 1 m/s 731 mmHg 88%
02:00 +10°C° 0 mm 1 m/s 731 mmHg 88%
03:00 +10°C° 0 mm 1 m/s 731 mmHg 88%
04:00 +10°C° 0 mm 1 m/s 730 mmHg 88%
05:00 +10°C° 0 mm 1 m/s 730 mmHg 89%
06:00 +10°C° 0 mm 1 m/s 730 mmHg 90%
07:00 +10°C° 0 mm 1 m/s 730 mmHg 90%
08:00 +12°C° 0 mm 1 m/s 730 mmHg 85%
09:00 +13°C° 0 mm 1 m/s 730 mmHg 80%
10:00 +14°C° 0 mm 0 m/s 730 mmHg 74%
11:00 +16°C° 0 mm 1 m/s 729 mmHg 70%
12:00 +18°C° 0 mm 1 m/s 729 mmHg 65%
13:00 +20°C° 0 mm 1 m/s 729 mmHg 61%
14:00 +20°C° 0 mm 1 m/s 728 mmHg 61%
15:00 +20°C° 0 mm 1 m/s 728 mmHg 61%
16:00 +19°C° 0 mm 2 m/s 727 mmHg 61%
17:00 +17°C° 0 mm 2 m/s 727 mmHg 69%
18:00 +15°C° 0 mm 2 m/s 727 mmHg 77%
19:00 +13°C° 0 mm 1 m/s 726 mmHg 85%
20:00 +13°C° 0 mm 1 m/s 726 mmHg 87%
21:00 +12°C° 0 mm 1 m/s 726 mmHg 89%
22:00 +12°C° 0 mm 1 m/s 726 mmHg 91%
23:00 +12°C° 0 mm 1 m/s 726 mmHg 91%

Après-demain, 1 Octobre, Jeudi

Heure Température Précipitation Vent Pression Humidité
00:00 +12°C° 0 mm 1 m/s 725 mmHg 91%
01:00 +12°C° 0 mm 1 m/s 725 mmHg 91%
02:00 +11°C° 0 mm 1 m/s 724 mmHg 91%
03:00 +11°C° 0 mm 1 m/s 724 mmHg 91%
04:00 +11°C° 0 mm 1 m/s 724 mmHg 91%
05:00 +11°C° 0 mm 1 m/s 723 mmHg 90%
06:00 +11°C° 0 mm 1 m/s 723 mmHg 89%
07:00 +11°C° 0 mm 1 m/s 723 mmHg 88%
08:00 +13°C° 0 mm 1 m/s 722 mmHg 81%
09:00 +15°C° 0 mm 1 m/s 722 mmHg 74%
10:00 +18°C° 0 mm 1 m/s 722 mmHg 68%
11:00 +19°C° 0 mm 1 m/s 722 mmHg 63%
12:00 +19°C° 0 mm 2 m/s 722 mmHg 58%
13:00 +20°C° 0 mm 2 m/s 721 mmHg 54%
14:00 +19°C° 0 mm 3 m/s 721 mmHg 57%
15:00 +18°C° 0 mm 3 m/s 721 mmHg 61%
16:00 +17°C° 0 mm 3 m/s 721 mmHg 65%
17:00 +16°C° 0 mm 3 m/s 721 mmHg 69%
18:00 +15°C° 0 mm 2 m/s 721 mmHg 74%
19:00 +14°C° 0 mm 2 m/s 721 mmHg 79%
20:00 +13°C° 0.1 mm 2 m/s 721 mmHg 81%
21:00 +13°C° 0.1 mm 1 m/s 721 mmHg 84%
22:00 +13°C° 0.1 mm 1 m/s 721 mmHg 87%
23:00 +12°C° 0.6 mm 1 m/s 721 mmHg 89%

2 Octobre, Vendredi

Heure Température Précipitation Vent Pression Humidité
00:00 +12°C° 0.6 mm 1 m/s 721 mmHg 91%
01:00 +12°C° 0.6 mm 1 m/s 720 mmHg 94%
02:00 +12°C° 0.2 mm 1 m/s 720 mmHg 94%
03:00 +11°C° 0.2 mm 1 m/s 719 mmHg 94%
04:00 +10°C° 0.2 mm 2 m/s 719 mmHg 95%
05:00 +11°C° 0 mm 1 m/s 719 mmHg 94%
06:00 +11°C° 0 mm 1 m/s 718 mmHg 94%
07:00 +12°C° 0 mm 1 m/s 718 mmHg 93%
08:00 +13°C° 0 mm 2 m/s 717 mmHg 89%
09:00 +14°C° 0 mm 2 m/s 717 mmHg 85%
10:00 +14°C° 0 mm 3 m/s 716 mmHg 81%
11:00 +16°C° 0 mm 3 m/s 716 mmHg 77%
12:00 +17°C° 0 mm 3 m/s 716 mmHg 72%
13:00 +18°C° 0 mm 4 m/s 715 mmHg 68%
14:00 +18°C° 0 mm 4 m/s 715 mmHg 67%
15:00 +18°C° 0 mm 3 m/s 714 mmHg 67%
16:00 +18°C° 0 mm 3 m/s 714 mmHg 66%
17:00 +17°C° 0 mm 3 m/s 713 mmHg 69%
18:00 +17°C° 0 mm 4 m/s 713 mmHg 72%
19:00 +15°C° 0 mm 4 m/s 713 mmHg 76%
20:00 +15°C° 0 mm 4 m/s 712 mmHg 78%
21:00 +14°C° 0 mm 3 m/s 712 mmHg 80%
22:00 +14°C° 0 mm 3 m/s 712 mmHg 82%
23:00 +13°C° 0 mm 3 m/s 712 mmHg 83%

3 Octobre, Samedi

Heure Température Précipitation Vent Pression Humidité
00:00 +13°C° 0 mm 3 m/s 711 mmHg 85%
01:00 +13°C° 0 mm 3 m/s 711 mmHg 86%
02:00 +12°C° 0 mm 3 m/s 711 mmHg 87%
03:00 +13°C° 0 mm 2 m/s 711 mmHg 88%
04:00 +12°C° 0 mm 1 m/s 711 mmHg 89%
05:00 +12°C° 0 mm 2 m/s 712 mmHg 89%
06:00 +12°C° 0 mm 2 m/s 713 mmHg 89%
07:00 +12°C° 0 mm 2 m/s 713 mmHg 89%
08:00 +11°C° 0 mm 3 m/s 714 mmHg 85%
09:00 +10°C° 0 mm 5 m/s 715 mmHg 81%
10:00 +10°C° 0 mm 6 m/s 716 mmHg 77%
11:00 +10°C° 0 mm 6 m/s 717 mmHg 73%
12:00 +10°C° 0 mm 5 m/s 717 mmHg 69%
13:00 +11°C° 0 mm 4 m/s 718 mmHg 65%
14:00 +11°C° 0 mm 3 m/s 718 mmHg 64%
15:00 +13°C° 0 mm 2 m/s 718 mmHg 63%
16:00 +13°C° 0 mm 1 m/s 718 mmHg 62%
17:00 +12°C° 0 mm 1 m/s 718 mmHg 65%
18:00 +11°C° 0 mm 1 m/s 718 mmHg 69%
19:00 +10°C° 0 mm 1 m/s 718 mmHg 72%
20:00 +10°C° 0 mm 1 m/s 718 mmHg 71%
21:00 +10°C° 0 mm 1 m/s 718 mmHg 71%
22:00 +10°C° 0 mm 1 m/s 719 mmHg 70%
23:00 +9°C° 0 mm 1 m/s 718 mmHg 72%

4 Octobre, Dimanche

Heure Température Précipitation Vent Pression Humidité
00:00 +9°C° 0 mm 1 m/s 718 mmHg 75%
01:00 +9°C° 0 mm 1 m/s 718 mmHg 77%
02:00 +8°C° 0 mm 1 m/s 717 mmHg 78%
03:00 +8°C° 0 mm 1 m/s 717 mmHg 78%
04:00 +7°C° 0 mm 1 m/s 717 mmHg 79%
05:00 +8°C° 0 mm 1 m/s 717 mmHg 79%
06:00 +8°C° 0 mm 1 m/s 717 mmHg 80%
07:00 +8°C° 0 mm 1 m/s 717 mmHg 80%
08:00 +9°C° 0 mm 2 m/s 717 mmHg 76%
09:00 +12°C° 0 mm 2 m/s 717 mmHg 72%
10:00 +13°C° 0 mm 3 m/s 717 mmHg 67%
11:00 +14°C° 0 mm 3 m/s 718 mmHg 63%
12:00 +15°C° 0 mm 4 m/s 718 mmHg 59%
13:00 +16°C° 0 mm 5 m/s 718 mmHg 55%
14:00 +15°C° 0.1 mm 5 m/s 718 mmHg 59%
15:00 +14°C° 0.1 mm 6 m/s 718 mmHg 63%
16:00 +13°C° 0.1 mm 6 m/s 719 mmHg 67%
17:00 +12°C° 0.1 mm 5 m/s 719 mmHg 73%
18:00 +10°C° 0.1 mm 4 m/s 719 mmHg 79%
19:00 +9°C° 0.1 mm 3 m/s 720 mmHg 85%
20:00 +8°C° 0 mm 3 m/s 720 mmHg 87%
21:00 +8°C° 0 mm 2 m/s 721 mmHg 89%
22:00 +7°C° 0 mm 2 m/s 721 mmHg 91%
23:00 +7°C° 0 mm 2 m/s 721 mmHg 89%
Voir plus